| time (UTC) | temp C | wind direction | speed KPH | gust KPH | rain 1hr cm | rain 24hr cm | rain mn cm | humidity % | barometer mb |
| 20260906122747 | 25 | 246 | 3.2 | 6.4 | 0.00 | 0.00 | 0.00 | 96 | |
| 20260906122243 | 25 | 279 | 3.2 | 4.8 | 0.00 | 0.00 | 0.00 | 96 | |
| 20260906121739 | 25 | 260 | 1.6 | 4.8 | 0.00 | 0.00 | 0.00 | 97 | |
| 20260906121235 | 25 | 246 | 1.6 | 6.4 | 0.00 | 0.00 | 0.00 | 97 | |
| 20260906120731 | 24 | 237 | 0.0 | 1.6 | 0.00 | 0.00 | 0.00 | 97 | |
| 20260906120227 | 24 | 248 | 3.2 | 4.8 | 0.00 | 0.00 | 0.00 | 97 | |
| 20260906115723 | 24 | 258 | 1.6 | 1.6 | 0.00 | 0.00 | 0.00 | 97 | |
| 20260906115218 | 24 | 262 | 0.0 | 1.6 | 0.00 | 0.00 | 0.00 | 97 | |
| 20260906114717 | 24 | 274 | 1.6 | 3.2 | 0.00 | 0.00 | 0.00 | 97 | |
| 20260906114212 | 24 | 230 | 0.0 | 0.0 | 0.00 | 0.00 | 0.00 | 97 | |
| 20260906113708 | 24 | 246 | 0.0 | 1.6 | 0.00 | 0.00 | 0.00 | 97 | |
| 20260906113207 | 24 | 246 | 0.0 | 0.0 | 0.00 | 0.00 | 0.00 | 97 | |
| 20260906112706 | 24 | 246 | 0.0 | 0.0 | 0.00 | 0.00 | 0.00 | 97 | |
| 20260906112203 | 24 | 241 | 1.6 | 4.8 | 0.00 | 0.00 | 0.00 | 97 | |
| 20260906111703 | 23 | 235 | 0.0 | 0.0 | 0.00 | 0.00 | 0.00 | 96 | |
| 20260906111157 | 23 | 226 | 0.0 | 0.0 | 0.00 | 0.00 | 0.00 | 96 | |
| 20260906110652 | 23 | 226 | 0.0 | 0.0 | 0.00 | 0.00 | 0.00 | 96 | |
| 20260906110148 | 23 | 226 | 0.0 | 0.0 | 0.00 | 0.00 | 0.00 | 96 | |
| 20260906105647 | 23 | 226 | 0.0 | 0.0 | 0.00 | 0.00 | 0.00 | 96 | |
| 20260906105144 | 23 | 226 | 0.0 | 0.0 | 0.00 | 0.00 | 0.00 | 96 | |
| 20260906104643 | 23 | 226 | 0.0 | 0.0 | 0.00 | 0.00 | 0.00 | 96 | |
| 20260906104143 | 23 | 226 | 0.0 | 0.0 | 0.00 | 0.00 | 0.00 | 96 | |
| 20260906103641 | 24 | 226 | 0.0 | 0.0 | 0.00 | 0.00 | 0.00 | 96 | |
| 20260906103136 | 24 | 226 | 0.0 | 0.0 | 0.00 | 0.00 | 0.00 | 96 | |
| 20260906102632 | 24 | 226 | 0.0 | 0.0 | 0.00 | 0.00 | 0.00 | 96 | |
| 20260906102131 | 24 | 225 | 1.6 | 3.2 | 0.00 | 0.00 | 0.00 | 96 | |
| 20260906101626 | 24 | 242 | 0.0 | 0.0 | 0.00 | 0.00 | 0.00 | 96 | |
| 20260906101125 | 24 | 242 | 0.0 | 1.6 | 0.00 | 0.00 | 0.00 | 96 | |
| 20260906100622 | 24 | 239 | 0.0 | 1.6 | 0.00 | 0.00 | 0.00 | 96 | |
| 20260906100122 | 24 | 231 | 0.0 | 0.0 | 0.00 | 0.00 | 0.00 | 96 | |
| 20260906095622 | 24 | 230 | 0.0 | 0.0 | 0.00 | 0.00 | 0.00 | 96 | |
| 20260906095117 | 24 | 231 | 0.0 | 0.0 | 0.00 | 0.00 | 0.00 | 96 | |
| 20260906094617 | 24 | 230 | 0.0 | 0.0 | 0.00 | 0.00 | 0.00 | 96 | |
| 20260906094113 | 24 | 230 | 0.0 | 0.0 | 0.00 | 0.00 | 0.00 | 95 | |
| 20260906093609 | 24 | 230 | 0.0 | 0.0 | 0.00 | 0.00 | 0.00 | 95 | |
| 20260906093108 | 24 | 231 | 0.0 | 0.0 | 0.00 | 0.00 | 0.00 | 95 | |
| 20260906092603 | 24 | 231 | 0.0 | 0.0 | 0.00 | 0.00 | 0.00 | 95 | |
| 20260906092058 | 24 | 230 | 0.0 | 1.6 | 0.00 | 0.00 | 0.00 | 95 | |
| 20260906091554 | 24 | 205 | 0.0 | 0.0 | 0.00 | 0.00 | 0.00 | 95 | |
| 20260906091051 | 24 | 224 | 0.0 | 0.0 | 0.00 | 0.00 | 0.00 | 95 | |
| 20260906090550 | 24 | 231 | 0.0 | 1.6 | 0.00 | 0.00 | 0.00 | 94 | |
| 20260906090046 | 24 | 239 | 0.0 | 1.6 | 0.00 | 0.00 | 0.00 | 94 | |
| 20260906085544 | 24 | 237 | 0.0 | 0.0 | 0.00 | 0.00 | 0.00 | 94 | |
| 20260906085044 | 24 | 238 | 0.0 | 0.0 | 0.00 | 0.00 | 0.00 | 94 | |
| 20260906084539 | 25 | 238 | 0.0 | 0.0 | 0.00 | 0.00 | 0.00 | 94 | |
| 20260906084037 | 25 | 238 | 0.0 | 0.0 | 0.00 | 0.00 | 0.00 | 94 | |
| 20260906083533 | 25 | 238 | 0.0 | 0.0 | 0.00 | 0.00 | 0.00 | 94 | |
| 20260906083033 | 25 | 237 | 0.0 | 1.6 | 0.00 | 0.00 | 0.00 | 94 | |
| 20260906082528 | 25 | 235 | 0.0 | 1.6 | 0.00 | 0.00 | 0.00 | 93 | |
| 20260906082024 | 25 | 234 | 0.0 | 0.0 | 0.00 | 0.00 | 0.00 | 93 | |
| 20260906081520 | 25 | 233 | 1.6 | 3.2 | 0.00 | 0.00 | 0.00 | 93 | |
| 20260906081015 | 25 | 253 | 1.6 | 3.2 | 0.00 | 0.00 | 0.00 | 93 | |
| 20260906080512 | 25 | 241 | 1.6 | 1.6 | 0.00 | 0.00 | 0.00 | 93 | |
| 20260906080008 | 25 | 247 | 1.6 | 3.2 | 0.00 | 0.00 | 0.00 | 93 | |
| 20260906075501 | 25 | 230 | 1.6 | 1.6 | 0.00 | 0.00 | 0.00 | 93 | |
| 20260906074956 | 25 | 228 | 1.6 | 3.2 | 0.00 | 0.00 | 0.00 | 93 | |
| 20260906074457 | 25 | 237 | 1.6 | 4.8 | 0.00 | 0.00 | 0.00 | 93 | |
| 20260906073955 | 25 | 227 | 0.0 | 0.0 | 0.00 | 0.00 | 0.00 | 93 | |
| 20260906073450 | 25 | 227 | 0.0 | 3.2 | 0.00 | 0.00 | 0.00 | 93 | |
| 20260906072946 | 25 | 220 | 1.6 | 3.2 | 0.00 | 0.00 | 0.00 | 93 | |
| 20260906072441 | 25 | 220 | 1.6 | 3.2 | 0.00 | 0.00 | 0.00 | 93 | |
| 20260906071937 | 25 | 220 | 3.2 | 3.2 | 0.00 | 0.00 | 0.00 | 93 | |
| 20260906071433 | 25 | 148 | 0.0 | 0.0 | 0.00 | 0.00 | 0.00 | 93 | |
| 20260906070929 | 25 | 148 | 0.0 | 0.0 | 0.00 | 0.00 | 0.00 | 93 | |
| 20260906070425 | 25 | 148 | 0.0 | 0.0 | 0.00 | 0.00 | 0.00 | 93 | |
| 20260906065920 | 25 | 147 | 0.0 | 1.6 | 0.00 | 0.00 | 0.00 | 93 | |
| 20260906065414 | 25 | 66 | 0.0 | 0.0 | 0.00 | 0.00 | 0.00 | 93 | |
| 20260906064910 | 25 | 271 | 0.0 | 0.0 | 0.00 | 0.00 | 0.00 | 93 | |
| 20260906064407 | 25 | 270 | 0.0 | 0.0 | 0.00 | 0.00 | 0.00 | 93 | |
| 20260906063906 | 25 | 271 | 0.0 | 0.0 | 0.00 | 0.00 | 0.00 | 93 | |
| 20260906063401 | 25 | 256 | 0.0 | 0.0 | 0.00 | 0.00 | 0.00 | 92 | |
| 20260906062856 | 25 | 278 | 1.6 | 3.2 | 0.00 | 0.00 | 0.00 | 92 | |
| 20260906062355 | 25 | 215 | 0.0 | 0.0 | 0.00 | 0.00 | 0.00 | 92 | |
| 20260906061851 | 25 | 217 | 0.0 | 0.0 | 0.00 | 0.00 | 0.00 | 92 | |
| 20260906061348 | 25 | 218 | 0.0 | 3.2 | 0.00 | 0.00 | 0.00 | 92 | |
| 20260906060842 | 25 | 245 | 3.2 | 4.8 | 0.00 | 0.00 | 0.00 | 92 | |
| 20260906060340 | 25 | 275 | 1.6 | 1.6 | 0.00 | 0.00 | 0.00 | 92 | |
| 20260906055835 | 25 | 229 | 3.2 | 6.4 | 0.00 | 0.00 | 0.00 | 92 | |
| 20260906055331 | 25 | 246 | 1.6 | 4.8 | 0.00 | 0.00 | 0.00 | 92 | |
| 20260906054826 | 25 | 241 | 6.4 | 6.4 | 0.00 | 0.00 | 0.00 | 92 | |
| 20260906054321 | 26 | 247 | 0.0 | 4.8 | 0.00 | 0.00 | 0.00 | 92 | |
| 20260906053818 | 26 | 248 | 1.6 | 4.8 | 0.00 | 0.00 | 0.00 | 92 | |
| 20260906053313 | 26 | 253 | 3.2 | 4.8 | 0.00 | 0.00 | 0.00 | 92 | |
| 20260906052808 | 26 | 280 | 1.6 | 3.2 | 0.00 | 0.00 | 0.00 | 92 | |
| 20260906052306 | 26 | 247 | 3.2 | 3.2 | 0.00 | 0.00 | 0.00 | 91 | |
| 20260906051801 | 26 | 231 | 0.0 | 4.8 | 0.00 | 0.00 | 0.00 | 91 | |
| 20260906051300 | 26 | 242 | 4.8 | 6.4 | 0.00 | 0.00 | 0.00 | 91 | |
| 20260906050756 | 26 | 264 | 3.2 | 4.8 | 0.00 | 0.00 | 0.00 | 91 | |
| 20260906050251 | 26 | 248 | 3.2 | 4.8 | 0.00 | 0.00 | 0.00 | 91 | |
| 20260906045749 | 26 | 245 | 3.2 | 3.2 | 0.00 | 0.00 | 0.00 | 91 | |
| 20260906045244 | 26 | 272 | 1.6 | 3.2 | 0.00 | 0.00 | 0.00 | 91 | |
| 20260906044741 | 26 | 261 | 1.6 | 6.4 | 0.00 | 0.00 | 0.00 | 91 | |
| 20260906044235 | 26 | 251 | 1.6 | 3.2 | 0.00 | 0.00 | 0.00 | 91 | |
| 20260906043732 | 26 | 260 | 3.2 | 6.4 | 0.00 | 0.00 | 0.00 | 91 | |
| 20260906043227 | 26 | 244 | 1.6 | 4.8 | 0.00 | 0.00 | 0.00 | 91 | |
| 20260906042727 | 26 | 243 | 3.2 | 3.2 | 0.00 | 0.00 | 0.00 | 91 | |
| 20260906042226 | 26 | 257 | 1.6 | 3.2 | 0.00 | 0.00 | 0.00 | 90 | |
| 20260906041721 | 26 | 258 | 3.2 | 4.8 | 0.00 | 0.00 | 0.00 | 90 | |
| 20260906041217 | 26 | 234 | 1.6 | 3.2 | 0.00 | 0.00 | 0.00 | 90 | |
| 20260906040712 | 26 | 232 | 0.0 | 3.2 | 0.00 | 0.00 | 0.00 | 90 | |
| 20260906040207 | 26 | 264 | 1.6 | 3.2 | 0.00 | 0.00 | 0.00 | 90 | |
| 20260906035703 | 26 | 272 | 0.0 | 1.6 | 0.00 | 0.00 | 0.00 | 89 | |
| 20260906035159 | 26 | 264 | 1.6 | 3.2 | 0.00 | 0.00 | 0.00 | 89 | |
| 20260906034653 | 26 | 240 | 1.6 | 4.8 | 0.00 | 0.00 | 0.00 | 89 | |
| 20260906034148 | 27 | 273 | 3.2 | 4.8 | 0.00 | 0.00 | 0.00 | 88 | |
| 20260906033644 | 27 | 234 | 3.2 | 6.4 | 0.00 | 0.00 | 0.00 | 88 | |
| 20260906033143 | 27 | 244 | 6.4 | 6.4 | 0.00 | 0.00 | 0.00 | 88 | |
| 20260906032640 | 27 | 239 | 3.2 | 3.2 | 0.00 | 0.00 | 0.00 | 88 | |
| 20260906032140 | 27 | 243 | 1.6 | 4.8 | 0.00 | 0.00 | 0.00 | 88 | |
| 20260906031635 | 27 | 246 | 1.6 | 6.4 | 0.00 | 0.00 | 0.00 | 87 | |
| 20260906031131 | 27 | 240 | 3.2 | 4.8 | 0.00 | 0.00 | 0.00 | 87 | |
| 20260906030630 | 27 | 239 | 1.6 | 3.2 | 0.00 | 0.00 | 0.00 | 88 | |
| 20260906030125 | 27 | 251 | 0.0 | 3.2 | 0.00 | 0.00 | 0.00 | 87 | |
| 20260906025624 | 27 | 269 | 3.2 | 4.8 | 0.00 | 0.00 | 0.00 | 87 | |
| 20260906025124 | 27 | 248 | 0.0 | 3.2 | 0.00 | 0.00 | 0.00 | 87 | |
| 20260906024618 | 27 | 237 | 3.2 | 4.8 | 0.00 | 0.00 | 0.00 | 86 | |
| 20260906024113 | 27 | 258 | 3.2 | 4.8 | 0.00 | 0.00 | 0.00 | 86 | |
| 20260906023609 | 27 | 223 | 1.6 | 3.2 | 0.00 | 0.00 | 0.00 | 86 | |
| 20260906023103 | 27 | 257 | 1.6 | 3.2 | 0.00 | 0.00 | 0.00 | 85 | |
| 20260906022558 | 27 | 271 | 1.6 | 4.8 | 0.00 | 0.00 | 0.00 | 85 | |
| 20260906022054 | 27 | 257 | 1.6 | 3.2 | 0.00 | 0.00 | 0.00 | 85 | |
| 20260906021549 | 27 | 232 | 1.6 | 4.8 | 0.00 | 0.00 | 0.00 | 84 | |
| 20260906021048 | 28 | 214 | 3.2 | 4.8 | 0.00 | 0.00 | 0.00 | 84 | |
| 20260906020542 | 28 | 253 | 3.2 | 6.4 | 0.00 | 0.00 | 0.00 | 84 | |
| 20260906020042 | 28 | 265 | 1.6 | 3.2 | 0.00 | 0.00 | 0.00 | 84 | |
| 20260906015541 | 28 | 220 | 0.0 | 0.0 | 0.00 | 0.00 | 0.00 | 84 | |
| 20260906015041 | 28 | 221 | 0.0 | 1.6 | 0.00 | 0.00 | 0.00 | 83 | |
| 20260906014536 | 28 | 246 | 0.0 | 1.6 | 0.00 | 0.00 | 0.00 | 83 | |
| 20260906014032 | 28 | 270 | 0.0 | 0.0 | 0.00 | 0.00 | 0.00 | 83 | |
| 20260906013527 | 28 | 270 | 0.0 | 0.0 | 0.00 | 0.00 | 0.00 | 82 | |
| 20260906013023 | 28 | 270 | 0.0 | 0.0 | 0.00 | 0.00 | 0.00 | 81 | |
| 20260906012518 | 28 | 242 | 0.0 | 0.0 | 0.00 | 0.00 | 0.00 | 81 | |
| 20260906012017 | 28 | 224 | 1.6 | 1.6 | 0.00 | 0.00 | 0.00 | 81 | |
| 20260906011513 | 28 | 256 | 0.0 | 1.6 | 0.00 | 0.00 | 0.00 | 81 | |
| 20260906011013 | 28 | 242 | 0.0 | 4.8 | 0.00 | 0.00 | 0.00 | 81 | |
| 20260906010508 | 28 | 274 | 1.6 | 4.8 | 0.00 | 0.00 | 0.00 | 81 | |
| 20260906010005 | 28 | 215 | 0.0 | 3.2 | 0.00 | 0.00 | 0.00 | 80 | |
| 20260906005504 | 28 | 196 | 0.0 | 1.6 | 0.00 | 0.00 | 0.00 | 79 | |
| 20260906005003 | 28 | 197 | 0.0 | 1.6 | 0.00 | 0.00 | 0.00 | 79 | |
| 20260906004502 | 28 | 221 | 0.0 | 3.2 | 0.00 | 0.00 | 0.00 | 79 | |
| 20260906003958 | 28 | 233 | 1.6 | 1.6 | 0.00 | 0.00 | 0.00 | 80 | |
| 20260906003453 | 27 | 261 | 1.6 | 3.2 | 0.00 | 0.00 | 0.00 | 82 | |
| 20260906002948 | 27 | 215 | 0.0 | 1.6 | 0.00 | 0.00 | 0.00 | 83 | |
| 20260906002448 | 28 | 190 | 0.0 | 0.0 | 0.00 | 0.00 | 0.00 | 82 | |
| 20260906001943 | 28 | 190 | 0.0 | 0.0 | 0.00 | 0.00 | 0.00 | 81 | |
| 20260906001439 | 28 | 190 | 0.0 | 0.0 | 0.00 | 0.00 | 0.00 | 81 | |
| 20260906000934 | 28 | 190 | 0.0 | 0.0 | 0.00 | 0.00 | 0.00 | 81 | |
| 20260906000429 | 28 | 190 | 0.0 | 0.0 | 0.00 | 0.00 | 0.00 | 81 | |
| 20260905235919 | 28 | 190 | 0.0 | 0.0 | 0.00 | 0.00 | 0.00 | 79 | |
| 20260905235418 | 29 | 190 | 0.0 | 0.0 | 0.00 | 0.00 | 0.00 | 78 | |
| 20260905234913 | 29 | 191 | 0.0 | 0.0 | 0.00 | 0.00 | 0.00 | 77 | |
| 20260905234409 | 30 | 192 | 0.0 | 0.0 | 0.00 | 0.00 | 0.00 | 76 | |
| 20260905233903 | 30 | 192 | 0.0 | 0.0 | 0.00 | 0.00 | 0.00 | 75 | |
| 20260905233358 | 30 | 192 | 0.0 | 0.0 | 0.00 | 0.00 | 0.00 | 73 | |
| 20260905232857 | 31 | 192 | 0.0 | 0.0 | 0.00 | 0.00 | 0.00 | 71 | |
| 20260905232354 | 31 | 193 | 0.0 | 1.6 | 0.00 | 0.00 | 0.00 | 70 | |
| 20260905231849 | 31 | 243 | 0.0 | 1.6 | 0.00 | 0.00 | 0.00 | 68 | |
| 20260905231349 | 31 | 248 | 0.0 | 1.6 | 0.00 | 0.00 | 0.00 | 66 | |
| 20260905230847 | 32 | 219 | 0.0 | 3.2 | 0.00 | 0.00 | 0.00 | 65 | |
| 20260905230344 | 32 | 227 | 3.2 | 6.4 | 0.00 | 0.00 | 0.00 | 64 | |
| 20260905225843 | 32 | 255 | 1.6 | 3.2 | 0.00 | 0.00 | 0.00 | 65 | |
| 20260905225338 | 32 | 241 | 1.6 | 3.2 | 0.00 | 0.00 | 0.00 | 64 | |
| 20260905224833 | 32 | 193 | 3.2 | 4.8 | 0.00 | 0.00 | 0.00 | 64 | |
| 20260905224329 | 32 | 239 | 1.6 | 4.8 | 0.00 | 0.00 | 0.00 | 62 | |
| 20260905223824 | 32 | 268 | 1.6 | 3.2 | 0.00 | 0.00 | 0.00 | 62 | |
| 20260905223322 | 32 | 266 | 3.2 | 3.2 | 0.00 | 0.00 | 0.00 | 62 | |
| 20260905222816 | 33 | 220 | 4.8 | 4.8 | 0.00 | 0.00 | 0.00 | 59 | |
| 20260905222315 | 33 | 273 | 6.4 | 6.4 | 0.00 | 0.00 | 0.00 | 57 | |
| 20260905221811 | 34 | 238 | 3.2 | 3.2 | 0.00 | 0.00 | 0.00 | 57 | |
| 20260905221308 | 34 | 244 | 1.6 | 1.6 | 0.00 | 0.00 | 0.00 | 56 | |
| 20260905220803 | 33 | 252 | 0.0 | 4.8 | 0.00 | 0.00 | 0.00 | 58 | |
| 20260905220259 | 33 | 262 | 3.2 | 4.8 | 0.00 | 0.00 | 0.00 | 58 | |
| 20260905215758 | 33 | 225 | 4.8 | 4.8 | 0.00 | 0.00 | 0.00 | 56 | |
| 20260905215254 | 33 | 266 | 6.4 | 6.4 | 0.00 | 0.00 | 0.00 | 61 | |
| 20260905214750 | 34 | 189 | 4.8 | 4.8 | 0.00 | 0.00 | 0.00 | 57 | |
| 20260905214246 | 33 | 182 | 0.0 | 4.8 | 0.00 | 0.00 | 0.00 | 57 | |
| 20260905213741 | 33 | 328 | 4.8 | 9.7 | 0.00 | 0.00 | 0.00 | 59 | |
| 20260905213237 | 34 | 241 | 3.2 | 4.8 | 0.00 | 0.00 | 0.00 | 58 | |
| 20260905212732 | 34 | 253 | 3.2 | 6.4 | 0.00 | 0.00 | 0.00 | 57 | |
| 20260905212231 | 34 | 217 | 1.6 | 6.4 | 0.00 | 0.00 | 0.00 | 59 | |
| 20260905211730 | 34 | 290 | 3.2 | 6.4 | 0.00 | 0.00 | 0.00 | 58 | |
| 20260905211226 | 34 | 265 | 3.2 | 4.8 | 0.00 | 0.00 | 0.00 | 57 | |
| 20260905210723 | 35 | 267 | 4.8 | 6.4 | 0.00 | 0.00 | 0.00 | 56 | |
| 20260905210222 | 35 | 275 | 4.8 | 4.8 | 0.00 | 0.00 | 0.00 | 56 | |
| 20260905205721 | 33 | 211 | 1.6 | 3.2 | 0.00 | 0.00 | 0.00 | 60 | |
| 20260905205216 | 33 | 289 | 1.6 | 1.6 | 0.00 | 0.00 | 0.00 | 62 | |
| 20260905204716 | 33 | 250 | 4.8 | 4.8 | 0.00 | 0.00 | 0.00 | 60 | |
| 20260905204212 | 34 | 225 | 1.6 | 6.4 | 0.00 | 0.00 | 0.00 | 58 | |
| 20260905203706 | 33 | 358 | 1.6 | 3.2 | 0.00 | 0.00 | 0.00 | 58 | |
| 20260905203201 | 33 | 38 | 1.6 | 1.6 | 0.00 | 0.00 | 0.00 | 61 | |
| 20260905202656 | 34 | 248 | 1.6 | 4.8 | 0.00 | 0.00 | 0.00 | 58 | |
| 20260905202152 | 33 | 61 | 0.0 | 1.6 | 0.00 | 0.00 | 0.00 | 59 | |
| 20260905201647 | 34 | 0 | 1.6 | 9.7 | 0.00 | 0.00 | 0.00 | 57 | |
| 20260905201147 | 35 | 38 | 1.6 | 3.2 | 0.00 | 0.00 | 0.00 | 59 | |
| 20260905200642 | 34 | 215 | 0.0 | 3.2 | 0.00 | 0.00 | 0.00 | 57 | |
| 20260905200138 | 34 | 280 | 4.8 | 4.8 | 0.00 | 0.00 | 0.00 | 61 | |
| 20260905195636 | 34 | 247 | 6.4 | 6.4 | 0.00 | 0.00 | 0.00 | 56 | |
| 20260905195131 | 35 | 277 | 4.8 | 6.4 | 0.00 | 0.00 | 0.00 | 58 | |
| 20260905194626 | 35 | 290 | 3.2 | 9.7 | 0.00 | 0.00 | 0.00 | 57 | |
| 20260905194125 | 34 | 260 | 4.8 | 9.7 | 0.00 | 0.00 | 0.00 | 56 | |
| 20260905193620 | 34 | 271 | 3.2 | 4.8 | 0.00 | 0.00 | 0.00 | 58 | |
| 20260905193115 | 33 | 258 | 0.0 | 4.8 | 0.00 | 0.00 | 0.00 | 59 | |
| 20260905192611 | 34 | 220 | 4.8 | 4.8 | 0.00 | 0.00 | 0.00 | 58 | |
| 20260905192107 | 34 | 76 | 0.0 | 3.2 | 0.00 | 0.00 | 0.00 | 60 | |
| 20260905191606 | 33 | 173 | 1.6 | 9.7 | 0.00 | 0.00 | 0.00 | 61 | |
| 20260905191105 | 33 | 232 | 0.0 | 9.7 | 0.00 | 0.00 | 0.00 | 62 | |
| 20260905190603 | 33 | 276 | 4.8 | 6.4 | 0.00 | 0.00 | 0.00 | 61 | |
| 20260905185602 | 32 | 224 | 3.2 | 3.2 | 0.00 | 0.00 | 0.00 | 66 | |
| 20260905185102 | 32 | 28 | 1.6 | 3.2 | 0.00 | 0.00 | 0.00 | 67 | |
| 20260905184556 | 32 | 18 | 1.6 | 3.2 | 0.00 | 0.00 | 0.00 | 65 | |
| 20260905184055 | 32 | 32 | 3.2 | 3.2 | 0.00 | 0.00 | 0.00 | 65 | |
| 20260905183555 | 32 | 285 | 4.8 | 6.4 | 0.00 | 0.00 | 0.00 | 65 | |
| 20260905183045 | 32 | 345 | 3.2 | 4.8 | 0.00 | 0.00 | 0.00 | 68 | |
| 20260905182544 | 32 | 294 | 0.0 | 4.8 | 0.00 | 0.00 | 0.00 | 66 | |
| 20260905182038 | 32 | 281 | 4.8 | 4.8 | 0.00 | 0.00 | 0.00 | 65 | |
| 20260905181533 | 32 | 251 | 8.0 | 12.9 | 0.00 | 0.00 | 0.00 | 63 | |
| 20260905181032 | 32 | 245 | 4.8 | 6.4 | 0.00 | 0.00 | 0.00 | 66 | |
| 20260905180527 | 32 | 235 | 0.0 | 3.2 | 0.00 | 0.00 | 0.00 | 67 | |
| 20260905180023 | 32 | 344 | 0.0 | 4.8 | 0.00 | 0.00 | 0.00 | 68 | |
| 20260905175522 | 32 | 55 | 1.6 | 1.6 | 0.00 | 0.00 | 0.00 | 69 | |
| 20260905175018 | 32 | 35 | 1.6 | 3.2 | 0.00 | 0.00 | 0.00 | 67 | |
| 20260905174513 | 33 | 2 | 1.6 | 4.8 | 0.00 | 0.00 | 0.00 | 65 | |
| 20260905174009 | 32 | 268 | 1.6 | 3.2 | 0.00 | 0.00 | 0.00 | 68 | |
| 20260905173505 | 31 | 296 | 4.8 | 6.4 | 0.00 | 0.00 | 0.00 | 66 | |
| 20260905173000 | 31 | 256 | 3.2 | 4.8 | 0.00 | 0.00 | 0.00 | 69 | |
| 20260905172458 | 31 | 356 | 0.0 | 1.6 | 0.00 | 0.00 | 0.00 | 68 | |
| 20260905171954 | 32 | 45 | 0.0 | 4.8 | 0.00 | 0.00 | 0.00 | 67 | |
| 20260905171450 | 31 | 217 | 1.6 | 4.8 | 0.00 | 0.00 | 0.00 | 69 | |
| 20260905170946 | 30 | 236 | 1.6 | 3.2 | 0.00 | 0.00 | 0.00 | 74 | |
| 20260905170443 | 30 | 4 | 0.0 | 1.6 | 0.00 | 0.00 | 0.00 | 74 | |
| 20260905165941 | 31 | 3 | 3.2 | 4.8 | 0.00 | 0.00 | 0.00 | 72 | |
| 20260905165436 | 31 | 266 | 3.2 | 6.4 | 0.00 | 0.00 | 0.00 | 70 | |
| 20260905164932 | 31 | 41 | 4.8 | 4.8 | 0.00 | 0.00 | 0.00 | 70 | |
| 20260905164426 | 31 | 56 | 1.6 | 4.8 | 0.00 | 0.00 | 0.00 | 72 | |
| 20260905163921 | 31 | 41 | 1.6 | 3.2 | 0.00 | 0.00 | 0.00 | 70 | |
| 20260905163418 | 31 | 221 | 4.8 | 6.4 | 0.00 | 0.00 | 0.00 | 69 | |
| 20260905162913 | 32 | 215 | 1.6 | 4.8 | 0.00 | 0.00 | 0.00 | 68 | |
| 20260905162408 | 31 | 162 | 0.0 | 1.6 | 0.00 | 0.00 | 0.00 | 71 | |
| 20260905161903 | 30 | 37 | 1.6 | 3.2 | 0.00 | 0.00 | 0.00 | 72 | |
| 20260905161403 | 31 | 358 | 1.6 | 3.2 | 0.00 | 0.00 | 0.00 | 73 | |
| 20260905160901 | 30 | 28 | 1.6 | 3.2 | 0.00 | 0.00 | 0.00 | 74 | |
| 20260905160355 | 29 | 299 | 1.6 | 3.2 | 0.00 | 0.00 | 0.00 | 78 | |
| 20260905155854 | 30 | 270 | 4.8 | 4.8 | 0.00 | 0.00 | 0.00 | 73 | |
| 20260905155349 | 31 | 272 | 8.0 | 9.7 | 0.00 | 0.00 | 0.00 | 71 | |
| 20260905154848 | 31 | 50 | 0.0 | 4.8 | 0.00 | 0.00 | 0.00 | 73 | |
| 20260905154344 | 30 | 249 | 3.2 | 4.8 | 0.00 | 0.00 | 0.00 | 73 | |
| 20260905153839 | 30 | 184 | 3.2 | 4.8 | 0.00 | 0.00 | 0.00 | 75 | |
| 20260905153336 | 30 | 149 | 6.4 | 6.4 | 0.00 | 0.00 | 0.00 | 74 | |
| 20260905152835 | 30 | 52 | 1.6 | 3.2 | 0.00 | 0.00 | 0.00 | 76 | |
| 20260905152334 | 30 | 284 | 1.6 | 1.6 | 0.00 | 0.00 | 0.00 | 76 | |
| 20260905151830 | 30 | 254 | 6.4 | 6.4 | 0.00 | 0.00 | 0.00 | 76 | |
| 20260905151325 | 28 | 199 | 1.6 | 1.6 | 0.00 | 0.00 | 0.00 | 80 | |
| 20260905150824 | 28 | 241 | 4.8 | 9.7 | 0.00 | 0.00 | 0.00 | 78 | |
| 20260905150319 | 28 | 255 | 4.8 | 9.7 | 0.00 | 0.00 | 0.00 | 79 | |
| 20260905145817 | 28 | 221 | 1.6 | 6.4 | 0.00 | 0.00 | 0.00 | 81 | |
| 20260905145316 | 28 | 220 | 1.6 | 4.8 | 0.00 | 0.00 | 0.00 | 83 | |
| 20260905144815 | 28 | 186 | 1.6 | 6.4 | 0.00 | 0.00 | 0.00 | 84 | |
| 20260905144311 | 27 | 268 | 3.2 | 3.2 | 0.00 | 0.00 | 0.00 | 87 | |
| 20260905143809 | 27 | 250 | 3.2 | 9.7 | 0.00 | 0.00 | 0.00 | 88 | |
| 20260905143304 | 26 | 245 | 1.6 | 4.8 | 0.00 | 0.00 | 0.00 | 93 | |
| 20260905142803 | 26 | 315 | 1.6 | 3.2 | 0.00 | 0.00 | 0.00 | 96 | |
| 20260905142257 | 26 | 43 | 1.6 | 1.6 | 0.00 | 0.00 | 0.00 | 98 | |
| 20260905141753 | 26 | 283 | 3.2 | 4.8 | 0.00 | 0.00 | 0.00 | 98 | |
| 20260905141249 | 25 | 31 | 0.0 | 3.2 | 0.00 | 0.00 | 0.00 | 98 | |
| 20260905140744 | 25 | 65 | 0.0 | 3.2 | 0.00 | 0.00 | 0.00 | 99 | |
| 20260905140244 | 25 | 44 | 3.2 | 3.2 | 0.00 | 0.00 | 0.00 | 99 | |
| 20260905135743 | 25 | 230 | 3.2 | 4.8 | 0.00 | 0.00 | 0.00 | 99 | |
| 20260905135240 | 24 | 52 | 0.0 | 1.6 | 0.00 | 0.00 | 0.00 | 99 | |
| 20260905134739 | 24 | 30 | 0.0 | 4.8 | 0.00 | 0.00 | 0.00 | 99 | |
| 20260905134238 | 24 | 293 | 1.6 | 3.2 | 0.00 | 0.00 | 0.00 | 99 | |
| 20260905133733 | 24 | 277 | 3.2 | 6.4 | 0.00 | 0.00 | 0.00 | 99 | |
| 20260905133228 | 24 | 350 | 0.0 | 1.6 | 0.00 | 0.00 | 0.00 | 99 | |
| 20260905132727 | 24 | 274 | 0.0 | 4.8 | 0.00 | 0.00 | 0.00 | 99 | |
| 20260905132223 | 24 | 264 | 1.6 | 3.2 | 0.00 | 0.00 | 0.00 | 99 | |
| 20260905131718 | 24 | 251 | 1.6 | 1.6 | 0.00 | 0.00 | 0.00 | 99 | |
| 20260905131214 | 24 | 96 | 0.0 | 1.6 | 0.00 | 0.00 | 0.00 | 99 | |
| 20260905130714 | 24 | 44 | 0.0 | 1.6 | 0.00 | 0.00 | 0.00 | 99 | |
| 20260905130213 | 24 | 47 | 0.0 | 0.0 | 0.00 | 0.00 | 0.00 | 99 | |
| 20260905125708 | 24 | 51 | 0.0 | 1.6 | 0.00 | 0.00 | 0.00 | 99 | |
| 20260905125203 | 23 | 279 | 1.6 | 3.2 | 0.00 | 0.00 | 0.00 | 99 | |
| 20260905124700 | 24 | 12 | 0.0 | 1.6 | 0.00 | 0.00 | 0.00 | 99 | |
| 20260905124155 | 23 | 255 | 0.0 | 1.6 | 0.00 | 0.00 | 0.00 | 99 | |
| 20260905123650 | 24 | 314 | 1.6 | 3.2 | 0.00 | 0.00 | 0.00 | 99 |